Content
SEND FEEDBACK

Daily
Averages
Monthly
Summary
United States of America

ACHANG BAY, GUAM


Home > North America > United States > Guam
Elevation: 30 feet     Latitude: 13 16N     Longitude: 144 45E

WEATHER
 
SELECT A DAY
Number of Records: 342,166;   Date Range: 1/1/95 - 8/12/14
 
SHARE

PRINT THIS DATA

[ ← Previous Day ]
WEATHER ALMANAC - NOVEMBER 29, 2013
[ Next Day → ]
[ °C ]   °F
Weather ElementAverageHighLow
Temperature81 °F85.1 °F (12:58 pm)76.5 °F (4:58 am)
Dewpoint75.5 °F77 °F (10:58 am)73.2 °F (10:58 pm)
Humidity83.7 %95 % (6:58 am)72 % (9:58 am)
Barometer29.88 in29.94 in (8:58 am)29.81 in (3:58 pm)
Wind Speed8.6 mph12.7 mph (8:58 pm)
Wind Gust17.3 mph (12:18 pm)
Weather ElementAverage
Visibility10 mi
Wind DirectionENE (55.9 °)

Weather ElementTotal
Precipitation---
Cooling Degree Days15.8 (Base 65)
Growing Degree Days30.8 (Base 50)
Averaged from 32 records on November 29, 2013
WEATHER CONDITIONS BREAKOUT
WIND DIRECTION BREAKOUT
WEATHER BY HOUR - NOVEMBER 29, 2013
[ °C ]   °F
Local TimeTemperatureDewpointHumidityBarometerVisibilityWind DirectionWind SpeedGust SpeedPrecipitationEventsConditions
1:58 AM78.1 °F74.8 °F90 %29.87 in10.0 miNE (50°)5.8 mphClear
2:58 AM77.4 °F74.8 °F92 %29.87 in10.0 miENE (60°)8.1 mphPartly Cloudy
3:58 AM77.5 °F74.1 °F89 %29.86 in10.0 miENE (60°)6.9 mphPartly Cloudy
4:58 AM76.5 °F73.9 °F92 %29.87 in10.0 miENE (70°)5.8 mphClear
5:58 AM76.5 °F74.7 °F94 %29.88 in10.0 miENE (60°)6.9 mphClear
6:58 AM76.8 °F75.4 °F95 %29.89 in10.0 miCalmClear
7:58 AM81.0 °F76.1 °F85 %29.92 in10.0 miENE (70°)10.4 mphClear
8:58 AM82.9 °F75.6 °F78 %29.94 in10.0 miENE (70°)9.2 mphClear
9:58 AM84.2 °F74.3 °F72 %29.94 in10.0 miNE (50°)6.9 mphClear
10:58 AM84.2 °F77.0 °F79 %29.92 in10.0 miNNE (30°)10.4 mphMostly Cloudy
11:33 AM84.2 °F77.0 °F79 %29.93 in10.0 miNE (50°)11.5 mphMostly Cloudy
11:38 AM84.2 °F77.0 °F79 %29.93 in10.0 miNNE (30°)10.4 mphScattered Clouds
11:58 AM84.0 °F76.6 °F78 %29.89 in10.0 miNE (40°)8.1 mphPartly Cloudy
12:18 PM84.2 °F77.0 °F79 %29.91 in10.0 miNE (40°)11.5 mph17.3 mphMostly Cloudy
12:23 PM84.2 °F77.0 °F79 %29.91 in10.0 miNE (40°)10.4 mph17.3 mphMostly Cloudy
12:58 PM85.1 °F76.5 °F75 %29.86 in10.0 miEast (90°)9.2 mphMostly Cloudy
1:03 PM84.2 °F75.2 °F74 %29.89 in10.0 miEast (80°)9.2 mphScattered Clouds
1:58 PM84.2 °F75.4 °F75 %29.82 in10.0 miNE (50°)5.8 mphPartly Cloudy
2:08 PM84.2 °F75.2 °F74 %29.85 in10.0 miNE (50°)9.2 mphMostly Cloudy
2:13 PM82.4 °F77.0 °F84 %29.85 in10.0 miEast (80°)8.1 mphScattered Clouds
2:58 PM83.1 °F74.8 °F76 %29.82 in10.0 miENE (60°)6.9 mphScattered Clouds
3:58 PM82.6 °F76.1 °F81 %29.81 in10.0 miNE (40°)8.1 mphScattered Clouds
4:58 PM81.5 °F75.6 °F82 %29.82 in10.0 miNE (50°)4.6 mphScattered Clouds
5:58 PM79.5 °F75.6 °F88 %29.84 in10.0 miENE (60°)8.1 mphClear
6:58 PM79.2 °F74.8 °F87 %29.86 in10.0 miENE (70°)8.1 mphPartly Cloudy
7:58 PM79.2 °F75.6 °F89 %29.87 in10.0 miENE (70°)9.2 mphPartly Cloudy
8:58 PM78.8 °F75.2 °F89 %29.88 in10.0 miENE (60°)12.7 mphMostly Cloudy
9:08 PM78.8 °F75.2 °F89 %29.92 in10.0 miENE (70°)11.5 mphMostly Cloudy
9:58 PM79.0 °F75.7 °F90 %29.88 in10.0 miENE (60°)11.5 mphMostly Cloudy
10:03 PM78.8 °F75.2 °F89 %29.91 in10.0 miENE (60°)10.4 mphScattered Clouds
10:58 PM77.9 °F73.2 °F85 %29.88 in10.0 miENE (60°)11.5 mphClear
11:58 PM77.9 °F75.2 °F91 %29.87 in10.0 miENE (60°)8.1 mphScattered Clouds
Hourly data recorded from PGUA, located miles away from Achang Bay, Guam







STORIES FROM OUR PARTNERS